www.pogodaiklimat.ru

Погода и климат >> Архив погоды >> Россия >> Краснодарский край >> Горный


ПОГОДА в Горном

  • Прогноз погоды в Горном
  • Монитор погоды в Горном
  • Климат города

АРХИВ ПОГОДЫ в Горном

Время (UTC), дата Ветер
(напр.,м/с)
 
Видим.   Явления Облачность Т
(С)
Тd
(С)
f
(%)
Тe
(С)
Тes
(С)
Комфортность P
(гПа)
Po
(гПа)
Тmin
(С)
Tmax
(С)
R
(мм)
R24
(мм)
S
(см)
03 14.10 Ю 4
{10}
20 км 10/10 600 м
[Sc]
+12.2 +8.7 79 +10 +10 1016.6 978.4 +10.0
06 14.10 Ю 3 20 км слабый ливневой дождь 10/10 600 м
[Cb cap]
+11.7 +11.7 100 +10 +10 1017.2 978.9
09 14.10 ЮЗ 2 50 км {ливн. осадки} 10/10 600 м
[Cb cap]
+13.1 +9.2 77 +12 +12 1016.6 978.4
12 14.10 С 1 10 км гроза, ливневой дождь 10/10 600 м
[Cb calv]
+10.0 +10.0 100 +9 +9 1017.4 978.8
15 14.10 СВ 1 10 км в посл. час гроза 10/10 600 м
[Cb calv]
+10.3 +10.3 100 +10 +10 1017.4 978.9 +13.6 42
18 14.10 штиль 0 500 м туман {гроза} 4/4 600 м
[Sc diur, vesp]
+7.8 +7.8 100 +7 +7 1018.8 979.8
21 14.10 ЮЗ 2 200 м туман {дождь} 4/4 600 м
[Sc diur, vesp]
+8.9 +8.9 100 +7 +7 1018.6 979.7
00 15.10 ЮЗ 3 10 км слабый ливневой дождь {туман} 10/10 600 м
[Cb cap]
+8.3 +9.4 100 +5 +5 1016.6 979.0
03 15.10 З 3 10 км в посл. час ливневой дождь 10/10 600 м
[Cb cap]
+8.5 +9.4 100 +6 +6 1016.6 979.7 +7.6 8
06 15.10 С 2 20 км {ливн. осадки} 9/9 600 м
[Sc]
+8.8 +8.8 100 +7 +7 1020.0 981.1
09 15.10 ЮЗ 3 50 км 9/9 600 м
[Sc diur, vesp]
+11.3 +4.8 64 +10 +10 1020.3 981.7
12 15.10 ЮЗ 5
{12}
50 км 9/8 600 м
[Sc Cc]
+11.3 +4.5 63 +9 +9 1019.8 981.2
15 15.10 ЮЗ 5-11
{12}
50 км 10/10 600 м
[Sc]
+11.0 +4.9 66 +8 +8 1019.6 981.0 +12.3
18 15.10 Ю 7-14
{15}
20 км слабый ливневой дождь 10/10 600 м
[Cb cap]
+9.0 +9.0 100 +5 +5 1018.3 979.4
21 15.10 ЮЗ 7-15
{15}
10 км слабый ливневой дождь 10/10 600 м
[Cb cap]
+9.1 +9.1 100 +5 +5 1014.9 976.2
00 16.10 З 4
{15}
1000 м ливневой дождь 10/10 600 м
[Cb cap]
+11.1 +11.1 100 +9 +9 1012.0 973.8
03 16.10 СВ 2 20 км в посл. час ливневой дождь 10/10 600 м
[Sc diur, vesp]
+10.0 +10.0 100 +8 +8 1014.2 975.6 +8.9 41
06 16.10 С 1 20 км {ливн. осадки} 8/8 600 м
[Sc diur, vesp]
+9.7 +7.1 84 +9 +10 1015.6 977.0
09 16.10 С 2
{11}
20 км в посл. час ливневой дождь 9/9 600 м
[Cb cap]
+8.9 +5.7 80 +7 +8 1017.3 978.5
12 16.10 С 6-11
{11}
50 км {ливн. осадки} 8/8 600 м
[Sc]
+10.3 +0.8 52 +7 +8 1018.7 980.1
15 16.10 С 2
{11}
50 км 10/9 600 м
[Sc Ci fib]
+8.3 +2.4 66 +7 +7 1021.2 982.2 +10.7 0.5
18 16.10 СВ 1 50 км 10/6 600 м
[Sc Ci sp]
+6.5 +4.1 85 +5 +5 1023.0 983.7
21 16.10 штиль 0 50 км 10/10 600 м
[Sc]
+5.7 +5.7 100 +4 +4 1023.8 984.4
00 17.10 штиль 0 50 км 10/4 600 м
[Sc Ci sp]
+5.6 +5.6 100 +4 +4 1024.0 984.6
03 17.10 Ю 1 50 км 10/3 600 м
[Sc Ac lent]
+5.9 +5.9 100 +5 +5 1024.5 985.0 +5.1
06 17.10 штиль 0 50 км 10/10 600 м
[Sc]
+7.8 +6.4 91 +7 +7 1024.9 985.8
09 17.10 ЮЗ 4-10
{10}
50 км 8/6 600 м
[Cu med, cong Ac trans]
+14.6 +7.7 63 +13 +15 1023.8 985.5
12 17.10 ЮЗ 6-10
{13}
50 км 8/3 600 м
[Cu med, cong Ac As]
+14.8 +6.7 58 +13 +14 1023.1 984.9
15 17.10 ЮЗ 5-11
{14}
50 км 3/3 600 м
[Sc diur, vesp Ac trans]
+12.7 +8.4 75 +11 +11 1023.7 985.3 +15.2
18 17.10 ЮЗ 4
{15}
50 км 3/3 600 м
[Sc]
+11.8 +7.2 73 +10 +10 1024.9 986.2
21 17.10 ЮЗ 5
{11}
50 км 4/4 600 м
[Sc]
+11.8 +5.1 63 +10 +10 1024.7 986.0
00 18.10 ЮЗ 2 50 км 10/10 600 м
[Sc]
+12.2 +5.6 64 +11 +11 1025.0 986.4
03 18.10 ЮЗ 5 50 км 9/9 600 м
[Sc]
+12.6 +5.1 60 +11 +11 1024.5 986.0 +11.3
06 18.10 ЮЗ 4 50 км 10/8 600 м
[Sc Cs]
+13.4 +6.1 61 +12 +12 1024.9 986.4
09 18.10 ЮЗ 5 50 км 10/10 600 м
[Sc]
+14.8 +8.8 67 +13 +13 1024.4 986.2
12 18.10 ЮЗ 4 50 км 10/10 600 м
[Sc]
+14.9 +10.5 75 +14 +14 1023.4 985.2
15 18.10 ЮЗ 5 50 км 10/10 600 м
[Sc]
+13.7 +10.5 81 +12 +12 1023.5 985.2 +15.6
18 18.10 ЮЗ 4 50 км 6/6 600 м
[Sc]
+12.6 +10.0 84 +11 +11 1023.7 985.2
21 18.10 ЮЗ 2 20 км местами туман поземный 3/3 600 м
[Sc]
+10.6 +10.6 100 +9 +9 1023.3 984.6
00 19.10 штиль 0 20 км местами туман поземный 3/3 600 м
[Sc]
+7.8 +10.1 100 +7 +7 1023.7 984.4
03 19.10 В 1 500 м туман ?/? +5.1 +5.1 100 +4 +4 1023.4 983.8
06 19.10 штиль 0 500 м туман ясно +7.7 +7.7 100 +7 +9 1023.0 983.8 +4.5
09 19.10 Ю 3 50 км {туман} ясно +18.8 +3.8 37 +19 +25 1020.7 983.0
12 19.10 ЮЗ 2 50 км {туман} ясно +18.9 +5.2 41 +20 +23 1019.6 982.1
15 19.10 ЮЗ 2 50 км 8/0
[Cs]
+15.5 +4.9 49 +16 +16 1020.1 982.0 +19.6
18 19.10 штиль 0 50 км 8/0
[Cs]
+8.3 +8.3 100 +7 +7 1021.0 982.0
21 19.10 штиль 0 20 км местами туман поземный 4/0
[Ci fib]
+6.3 +6.3 100 +5 +5 1021.0 981.6
00 20.10 штиль 0 20 км местами туман поземный ясно +4.3 +4.3 100 +3 +3 1020.8 981.2
03 20.10 штиль 0 20 км местами туман поземный ясно +2.8 +2.8 100 +1 +1 1021.0 981.2 +2.8
06 20.10 штиль 0 50 км 3/0
[Ci fib]
+8.8 +6.4 85 +8 +10 1020.5 981.6 +2.7
09 20.10 ЮЗ 2 50 км 3/0
[Ci fib]
+19.6 +5.8 40 +21 +27 комфорт 1018.2 980.8
12 20.10 ЮЗ 3 50 км 3/0
[Ci fib]
+20.8 +5.3 36 +22 +25 комфорт 1017.2 980.0
15 20.10 штиль 0 50 км 4/0
[Ci]
+13.9 +8.7 71 +14 +14 1018.5 980.4 +21.3
18 20.10 штиль 0 50 км 4/0
[Ci fib]
+8.7 +8.7 100 +8 +8 1019.8 980.9
21 20.10 штиль 0 20 км местами туман поземный ясно +7.1 +7.1 100 +6 +6 1019.6 980.5

 

Местоположение метеостанции Горный (Краснодарский край, Россия): широта 44.28 долгота 39.27 высота над уровнем моря 323 м.

В архиве по умолчанию представлена погода в Горном за последнюю неделю. Архивные данные за месяц целиком и за предыдущие месяцы, начиная с января 2011 года, Вы можете получить, выбрав интересующий диапазон дат из раскрывающегося списка и нажав кнопку "Ввод!".

Внимание! Время в таблицах - всемирное. Для получения местного времени необходимо прибавить поправку, которая в Горном равна 3 ч.

Смотрите также архив погоды в соседних городах и на ближайших метеорологических станциях:

Погода в Туапсе (Краснодарский край, Россия) (26 км)
Погода в Горячем Ключе (Краснодарский край, Россия) (41 км)
Погода в Джубге (Краснодарский край, Россия) (44 км)
Погода в Шунтуке (Адыгея, Россия) (71 км)
Погода в Белореченске (Краснодарский край, Россия) (72 км)
Погода в Майкопе (Адыгея, Россия) (75 км)
Погода в Гузерипле (Адыгея, Россия) (75 км)
Погода в Сочи (Краснодарский край, Россия) (88 км)
Погода в Краснодаре (Краснодарский край, Россия) (88 км)
Погода в Кепше (Краснодарский край, Россия) (96 км)

Пояснения к столбцам:

Ветер - указаны скорость ветра в м/с - средняя за 10 мин, порывы в срок и между сроками (в фигурных скобках) и направление, откуда дует ветер: С - северный, СВ - северо-восточный, В - восточный, ЮВ - юго-восточный, Ю - южный, ЮЗ - юго-западный, З - западный, СЗ - северо-западный.
Видимость - горизонтальная дальность видимости в метрах или километрах. При видимости от 1 до 10 км при отсутствии осадков обычно наблюдается дымка, при ухудшении видимости до 1 км и менее - туман. В сухую погоду видимость может ухудшаться дымом, пылью или мглою.
Явления - указаны атмосферные явления, наблюдавшиеся в срок или в последний час перед сроком; фигурными скобками обозначены явления, наблюдавшиеся между сроками (за 1-3 часа до срока); квадратными скобками обозначены град или гололедные отложения с указанием их диаметра в мм.
Облачность - указаны через наклонную черту общая и нижняя облачность в баллах и высота нижней границы облаков в метрах; квадратными скобками обозначены формы облаков: Ci - перистые, Cs - перисто-слоистые, Cc - перисто-кучевые, Ac - высококучевые, As - высокослоистые, Sc - слоисто-кучевые, Ns - слоисто-дождевые, Cu - кучевые, Cb - кучево-дождевые. Подробнее классификацию облаков см. в Атласе облаков (PDF).
T - Температура воздуха - температура, измеренная на высоте 2 м над землей.
Td - Температура точки росы - температура, при понижении до которой содержащийся в воздухе водяной пар достигнет насыщения.
f - Относительная влажность воздуха - влажноcть воздуха, измеренная на высоте 2 м над землей.
Te - Эффективная температура - температура, которую ощущает одетый по сезону человек в тени. Характеристика душности погоды. При расчете учитывается влияние влажности воздуха и скорости ветра на теплоощущения человека.
Tes - Эффективная температура на солнце - температура, которую ощущает человек, с поправкой на солнечный нагрев. Характеристика знойности погоды. Зависит от высоты солнца над горизонтом, облачности и скорости ветра. Ночью, в пасмурную погоду, а также при ветре 12 м/с и более поправка равна нулю.
P - Атмосферное давление - приведенное к уровню моря атмосферное давление.
Po - Атмосферное давление - измеренное на уровне метеостанции атмосферное давление.
Tmin - Минимальная температура - минимум температуры воздуха на высоте 2 м над землей.
Tmax - Максимальная температура - максимум температуры воздуха на высоте 2 м над землей.
R - Количество осадков - Количество выпавших осадков за период времени, мм. При наведении курсора мыши на число - период времени, за который выпало указанное количество осадков.
R24 - Количество осадков - Количество выпавших осадков за 24 часа, мм.
S - Снежный покров - Высота снежного покрова, см. При наведении курсора мыши на число - состояние снежного покрова и степень покрытия местности в баллах.